Regional Weather Roundup
Issued by NWS

Home | Current Version | Previous Version | Graphics & Text | Print | Product List | Glossary On
Versions: 1 2 3 4 5 6 7 8 9 10 11 12 13 14 15 16 17 18 19 20 21 22 23 24 25 26 27 28 29 30 31 32 33 34 35 36 37 38 39 40 41 42 43 44 45 46 47 48 49 50
679
ASUS43 KLSX 041357
RWRMO

WEATHER SUMMARY FOR MISSOURI
NATIONAL WEATHER SERVICE SPRINGFIELD MO
900 AM CDT WED MAY 04 2016

NOTE: "FAIR" INDICATES FEW OR NO CLOUDS BELOW 12,000 FEET WITH NO
       SIGNIFICANT WEATHER AND/OR OBSTRUCTIONS TO VISIBILITY.
       CURRENT SKY AND/OR WEATHER CONDITIONS ARE NOT AVAILABLE FOR
       CHILLICOTHE AND FARMINGTON.

MOZ001>031-035>038-043-044-053-054-041500-
...NORTHERN AND WESTERN MISSOURI...

CITY           SKY/WX    TMP DP  RH WIND       PRES   REMARKS
KANSAS CTY INT SUNNY     58  39  49 N14G20    29.94R
ST JOSEPH      SUNNY     58  40  51 N15       29.96R
CHILLICOTHE      N/A     58  44  60 MISG      29.92R

$$
MOZ066>068-077>081-088>096-101>105-041500-
...SOUTHWEST MISSOURI...

CITY           SKY/WX    TMP DP  RH WIND       PRES   REMARKS
SPRINGFIELD    SUNNY     61  45  55 NW13G21   29.88R
JOPLIN         SUNNY     61  48  62 NW15      29.94R
BRANSON        SUNNY     61  46  59 W9G16     29.90F

$$
MOZ032>034-039>042-045>050-055>058-069>072-041500-
...CENTRAL MISSOURI...

CITY           SKY/WX    TMP DP  RH WIND       PRES   REMARKS
COLUMBIA       NOT AVBL
JEFFERSON CITY SUNNY     62  45  53 NW12      29.82R
ROLLA          SUNNY     59  47  64 NW15G22   29.79R
SEDALIA        SUNNY     61  45  55 NW16      29.88R
WARRENSBURG    SUNNY     59  41  51 NW13      29.90R

$$
MOZ051-052-059>065-041500-
...EAST CENTRAL MISSOURI...

CITY           SKY/WX    TMP DP  RH WIND       PRES   REMARKS
ST LOUIS INTL  MOSUNNY   63  46  54 N15G23    29.75R

$$
MOZ072>076-082>087-097>100-106>115-041500-
...SOUTH CENTRAL AND SOUTHEAST MISSOURI...

CITY           SKY/WX    TMP DP  RH WIND       PRES   REMARKS
CAPE GIRARDEAU CLOUDY    56  47  71 W14       29.75F
POPLAR BLUFF   CLOUDY    58  46  64 W13       29.79F

$$



USA.gov is the U.S. government's official web portal to all federal, state and local government web resources and services.